When you browse on this site, cookies collect data to enhance your experience and personalize the content and advertising you see.
Visit our Privacy Policy to learn more. By continuing to use the site, you agree to this use of cookies and data.

Stündliche Wetter Bolshie Kurguzi

Heute, 27 September, Sonntag

Zeit Temperatur Niederschläge Wind Luftdruck Luftfeuchtigkeit
00:00 +10°C° 0 mm 2 m/S 762 mmHg 71%
01:00 +10°C° 0 mm 2 m/S 762 mmHg 70%
02:00 +10°C° 0 mm 2 m/S 762 mmHg 69%
03:00 +10°C° 0 mm 2 m/S 763 mmHg 67%
04:00 +10°C° 0 mm 2 m/S 763 mmHg 67%
05:00 +9°C° 0 mm 2 m/S 763 mmHg 67%
06:00 +9°C° 0 mm 2 m/S 763 mmHg 68%
07:00 +10°C° 0 mm 2 m/S 763 mmHg 64%
08:00 +13°C° 0 mm 2 m/S 763 mmHg 61%
09:00 +14°C° 0 mm 2 m/S 764 mmHg 59%
10:00 +15°C° 0 mm 2 m/S 764 mmHg 56%
11:00 +16°C° 0 mm 2 m/S 764 mmHg 53%
12:00 +17°C° 0 mm 2 m/S 764 mmHg 50%
13:00 +17°C° 0 mm 2 m/S 764 mmHg 51%
14:00 +17°C° 0 mm 2 m/S 764 mmHg 52%
15:00 +17°C° 0 mm 2 m/S 764 mmHg 55%
16:00 +16°C° 0 mm 2 m/S 764 mmHg 59%
17:00 +15°C° 0 mm 2 m/S 764 mmHg 63%
18:00 +13°C° 0 mm 2 m/S 764 mmHg 67%
19:00 +13°C° 0 mm 1 m/S 764 mmHg 69%
20:00 +12°C° 0 mm 1 m/S 764 mmHg 70%
21:00 +11°C° 0 mm 1 m/S 764 mmHg 71%
22:00 +11°C° 0 mm 1 m/S 764 mmHg 71%
23:00 +11°C° 0 mm 1 m/S 764 mmHg 71%

Morgen, 28 September, Montag

Zeit Temperatur Niederschläge Wind Luftdruck Luftfeuchtigkeit
00:00 +11°C° 0 mm 1 m/S 764 mmHg 71%
01:00 +10°C° 0 mm 1 m/S 764 mmHg 71%
02:00 +10°C° 0 mm 1 m/S 765 mmHg 71%
03:00 +10°C° 0 mm 1 m/S 765 mmHg 71%
04:00 +10°C° 0 mm 1 m/S 765 mmHg 71%
05:00 +9°C° 0 mm 1 m/S 765 mmHg 72%
06:00 +9°C° 0 mm 1 m/S 765 mmHg 72%
07:00 +11°C° 0 mm 1 m/S 765 mmHg 66%
08:00 +13°C° 0 mm 1 m/S 765 mmHg 60%
09:00 +14°C° 0 mm 1 m/S 765 mmHg 54%
10:00 +15°C° 0 mm 1 m/S 765 mmHg 50%
11:00 +18°C° 0 mm 1 m/S 765 mmHg 47%
12:00 +18°C° 0 mm 2 m/S 765 mmHg 43%
13:00 +18°C° 0 mm 2 m/S 765 mmHg 44%
14:00 +18°C° 0 mm 2 m/S 764 mmHg 44%
15:00 +19°C° 0 mm 1 m/S 764 mmHg 45%
16:00 +16°C° 0 mm 1 m/S 764 mmHg 50%
17:00 +15°C° 0 mm 1 m/S 764 mmHg 55%
18:00 +13°C° 0 mm 1 m/S 764 mmHg 60%
19:00 +12°C° 0 mm 1 m/S 764 mmHg 62%
20:00 +12°C° 0 mm 1 m/S 764 mmHg 63%
21:00 +11°C° 0 mm 1 m/S 765 mmHg 65%
22:00 +11°C° 0 mm 1 m/S 765 mmHg 66%
23:00 +11°C° 0 mm 1 m/S 764 mmHg 67%

übermorgen, 29 September, Dienstag

Zeit Temperatur Niederschläge Wind Luftdruck Luftfeuchtigkeit
00:00 +10°C° 0 mm 1 m/S 764 mmHg 68%
01:00 +10°C° 0 mm 1 m/S 764 mmHg 68%
02:00 +10°C° 0 mm 1 m/S 765 mmHg 68%
03:00 +10°C° 0 mm 1 m/S 765 mmHg 68%
04:00 +10°C° 0 mm 1 m/S 765 mmHg 69%
05:00 +10°C° 0 mm 1 m/S 764 mmHg 70%
06:00 +10°C° 0 mm 1 m/S 764 mmHg 71%
07:00 +11°C° 0 mm 1 m/S 764 mmHg 68%
08:00 +13°C° 0 mm 1 m/S 764 mmHg 64%
09:00 +14°C° 0 mm 1 m/S 765 mmHg 61%
10:00 +16°C° 0 mm 2 m/S 764 mmHg 57%
11:00 +17°C° 0 mm 2 m/S 764 mmHg 54%
12:00 +18°C° 0 mm 2 m/S 764 mmHg 50%
13:00 +18°C° 0 mm 2 m/S 764 mmHg 51%
14:00 +18°C° 0 mm 2 m/S 764 mmHg 51%
15:00 +18°C° 0 mm 2 m/S 764 mmHg 52%
16:00 +17°C° 0 mm 2 m/S 763 mmHg 57%
17:00 +15°C° 0 mm 2 m/S 763 mmHg 63%
18:00 +13°C° 0 mm 2 m/S 763 mmHg 69%
19:00 +13°C° 0 mm 2 m/S 763 mmHg 69%
20:00 +13°C° 0 mm 1 m/S 763 mmHg 69%
21:00 +12°C° 0 mm 1 m/S 763 mmHg 69%
22:00 +12°C° 0 mm 1 m/S 763 mmHg 69%
23:00 +11°C° 0 mm 1 m/S 763 mmHg 69%

30 September, Mittwoch

Zeit Temperatur Niederschläge Wind Luftdruck Luftfeuchtigkeit
00:00 +11°C° 0 mm 1 m/S 763 mmHg 70%
01:00 +11°C° 0 mm 1 m/S 763 mmHg 71%
02:00 +11°C° 0 mm 1 m/S 763 mmHg 73%
03:00 +10°C° 0 mm 1 m/S 763 mmHg 74%
04:00 +10°C° 0 mm 1 m/S 763 mmHg 76%
05:00 +9°C° 0 mm 2 m/S 763 mmHg 77%
06:00 +9°C° 0 mm 2 m/S 762 mmHg 79%
07:00 +10°C° 0 mm 2 m/S 762 mmHg 76%
08:00 +12°C° 0 mm 2 m/S 762 mmHg 73%
09:00 +13°C° 0 mm 2 m/S 762 mmHg 71%
10:00 +15°C° 0 mm 2 m/S 762 mmHg 68%
11:00 +16°C° 0 mm 2 m/S 762 mmHg 64%
12:00 +17°C° 0 mm 3 m/S 762 mmHg 61%
13:00 +17°C° 0 mm 3 m/S 762 mmHg 62%
14:00 +17°C° 0 mm 3 m/S 762 mmHg 62%
15:00 +17°C° 0 mm 3 m/S 762 mmHg 62%
16:00 +16°C° 0 mm 2 m/S 762 mmHg 67%
17:00 +15°C° 0 mm 2 m/S 761 mmHg 73%
18:00 +13°C° 0 mm 2 m/S 761 mmHg 78%
19:00 +13°C° 0 mm 2 m/S 761 mmHg 79%
20:00 +12°C° 0 mm 2 m/S 762 mmHg 79%
21:00 +12°C° 0 mm 2 m/S 762 mmHg 80%
22:00 +12°C° 0 mm 2 m/S 762 mmHg 81%
23:00 +12°C° 0 mm 2 m/S 762 mmHg 82%

1 Oktober, Donnerstag

Zeit Temperatur Niederschläge Wind Luftdruck Luftfeuchtigkeit
00:00 +10°C° 0 mm 2 m/S 762 mmHg 82%
01:00 +10°C° 0 mm 2 m/S 762 mmHg 83%
02:00 +10°C° 0 mm 2 m/S 762 mmHg 84%
03:00 +11°C° 0 mm 1 m/S 762 mmHg 84%
04:00 +10°C° 0 mm 1 m/S 762 mmHg 85%
05:00 +10°C° 0 mm 1 m/S 762 mmHg 86%
06:00 +10°C° 0 mm 1 m/S 762 mmHg 87%
07:00 +10°C° 0 mm 2 m/S 762 mmHg 81%
08:00 +13°C° 0 mm 2 m/S 762 mmHg 75%
09:00 +15°C° 0 mm 2 m/S 762 mmHg 69%
10:00 +16°C° 0 mm 2 m/S 762 mmHg 64%
11:00 +17°C° 0 mm 2 m/S 762 mmHg 59%
12:00 +18°C° 0 mm 2 m/S 762 mmHg 55%
13:00 +18°C° 0 mm 2 m/S 762 mmHg 54%
14:00 +18°C° 0 mm 2 m/S 762 mmHg 53%
15:00 +18°C° 0 mm 2 m/S 761 mmHg 53%
16:00 +17°C° 0 mm 2 m/S 761 mmHg 59%
17:00 +15°C° 0 mm 2 m/S 761 mmHg 65%
18:00 +13°C° 0 mm 1 m/S 761 mmHg 71%
19:00 +13°C° 0 mm 1 m/S 761 mmHg 73%
20:00 +12°C° 0 mm 1 m/S 761 mmHg 74%
21:00 +12°C° 0 mm 1 m/S 761 mmHg 76%
22:00 +11°C° 0 mm 1 m/S 761 mmHg 78%
23:00 +11°C° 0 mm 1 m/S 761 mmHg 80%

2 Oktober, Freitag

Zeit Temperatur Niederschläge Wind Luftdruck Luftfeuchtigkeit
00:00 +11°C° 0 mm 1 m/S 761 mmHg 83%
01:00 +11°C° 0 mm 1 m/S 761 mmHg 84%
02:00 +10°C° 0 mm 1 m/S 761 mmHg 86%
03:00 +10°C° 0 mm 1 m/S 761 mmHg 88%
04:00 +10°C° 0 mm 1 m/S 761 mmHg 88%
05:00 +10°C° 0 mm 1 m/S 761 mmHg 89%
06:00 +10°C° 0 mm 1 m/S 761 mmHg 89%
07:00 +11°C° 0 mm 1 m/S 761 mmHg 83%
08:00 +13°C° 0 mm 2 m/S 761 mmHg 77%
09:00 +14°C° 0 mm 2 m/S 761 mmHg 70%
10:00 +16°C° 0 mm 2 m/S 761 mmHg 65%
11:00 +17°C° 0 mm 2 m/S 761 mmHg 60%
12:00 +18°C° 0 mm 2 m/S 761 mmHg 55%
13:00 +18°C° 0 mm 2 m/S 761 mmHg 54%
14:00 +18°C° 0 mm 2 m/S 761 mmHg 53%
15:00 +18°C° 0 mm 2 m/S 760 mmHg 53%
16:00 +18°C° 0 mm 1 m/S 760 mmHg 58%
17:00 +15°C° 0 mm 1 m/S 760 mmHg 64%
18:00 +13°C° 0 mm 1 m/S 760 mmHg 70%
19:00 +13°C° 0 mm 1 m/S 760 mmHg 73%
20:00 +12°C° 0 mm 1 m/S 760 mmHg 75%
21:00 +12°C° 0 mm 1 m/S 760 mmHg 77%
22:00 +11°C° 0 mm 1 m/S 760 mmHg 79%
23:00 +11°C° 0 mm 1 m/S 760 mmHg 81%
Mehr zeigen